timestamp,record,latitude,longitude,height,speed,course,satellites,validity,hdop,vdop,pdop,sep,ax,ay,az,gx,gy,gz,mx,my,mz,temp_imu,temp_1,temp_2,temp_3,temp_4,atm,year,month,day,hour,minute,second,rssi,ref
2022-04-22 08:22:48.000,0,41.211182,1.72789,-6.1,0.39,,9,,1.14,,,,,,,,,,,,,,,,,,,2022,4,22,8,22,48,31,
2022-04-22 08:22:58.000,0,41.211178,1.727888,-5.5,0.08,,9,,1.14,,,,,,,,,,,,,,,,,,,2022,4,22,8,22,58,31,
2022-04-22 08:23:04.000,0,41.211178,1.727888,-4.7,0.11,,9,,1.14,,,,,,,,,,,,,,,,,,,2022,4,22,8,23,4,31,
2022-04-22 08:23:09.000,0,41.211174,1.727888,-4,0.04,,9,,1.14,,,,,,,,,,,,,,,,,,,2022,4,22,8,23,9,31,
2022-04-22 08:23:14.000,0,41.21117,1.727891,-3.6,0.02,,9,,1.14,,,,,,,,,,,,,,,,,,,2022,4,22,8,23,14,31,
2022-04-22 08:23:18.000,0,41.21117,1.727893,-3.8,0.02,,9,,1.14,,,,,,,,,,,,,,,,,,,2022,4,22,8,23,18,31,
2022-04-22 08:23:23.000,0,41.211178,1.727888,-4.4,0.3,,9,,1.14,,,,,,,,,,,,,,,,,,,2022,4,22,8,23,23,31,
2022-04-22 08:23:28.000,0,41.211178,1.727886,-4,0.05,,9,,1.14,,,,,,,,,,,,,,,,,,,2022,4,22,8,23,28,31,
2022-04-22 08:23:34.000,0,41.211174,1.727889,-3.4,0.11,,9,,1.14,,,,,,,,,,,,,,,,,,,2022,4,22,8,23,34,31,
2022-04-22 08:23:39.000,0,41.211174,1.727894,-3.7,0.18,,9,,1.14,,,,,,,,,,,,,,,,,,,2022,4,22,8,23,39,31,
2022-04-22 08:23:44.000,0,41.211178,1.727892,-4.1,0.02,,9,,1.14,,,,,,,,,,,,,,,,,,,2022,4,22,8,23,44,29,
2022-04-22 08:23:49.000,0,41.211182,1.727889,-5.3,0.06,,9,,1.14,,,,,,,,,,,,,,,,,,,2022,4,22,8,23,49,29,
2022-04-22 08:23:54.000,0,41.211185,1.727884,-7,0.27,,9,,1.14,,,,,,,,,,,,,,,,,,,2022,4,22,8,23,54,29,
2022-04-22 08:23:59.000,0,41.211189,1.727889,-6.3,0.15,,9,,1.14,,,,,,,,,,,,,,,,,,,2022,4,22,8,23,59,29,
2022-04-22 08:24:04.000,0,41.211178,1.727895,-4.4,0.1,,10,,0.9,,,,,,,,,,,,,,,,,,,2022,4,22,8,24,4,29,
2022-04-22 08:24:09.000,0,41.211178,1.72789,-3.2,0.06,,10,,0.9,,,,,,,,,,,,,,,,,,,2022,4,22,8,24,9,31,
2022-04-22 08:24:14.000,0,41.211178,1.727889,-2.4,0.24,,10,,0.9,,,,,,,,,,,,,,,,,,,2022,4,22,8,24,14,31,
2022-04-22 08:24:19.000,0,41.21117,1.727878,-1.2,0.21,,10,,0.9,,,,,,,,,,,,,,,,,,,2022,4,22,8,24,19,31,
2022-04-22 08:24:24.000,0,41.211166,1.727863,-1.2,0.03,,10,,0.9,,,,,,,,,,,,,,,,,,,2022,4,22,8,24,24,31,
2022-04-22 08:24:29.000,0,41.211163,1.727857,-1.9,0.26,,10,,0.9,,,,,,,,,,,,,,,,,,,2022,4,22,8,24,29,31,
2022-04-22 08:24:34.000,0,41.211159,1.727847,-2.6,0.17,,8,,1.19,,,,,,,,,,,,,,,,,,,2022,4,22,8,24,34,31,
2022-04-22 08:24:39.000,0,41.211166,1.727853,-2.3,0.03,,10,,0.9,,,,,,,,,,,,,,,,,,,2022,4,22,8,24,39,31,
2022-04-22 08:24:44.000,0,41.21117,1.727851,-3,0.18,,10,,0.9,,,,,,,,,,,,,,,,,,,2022,4,22,8,24,44,31,
2022-04-22 08:24:49.000,0,41.211174,1.727846,-3.4,0.68,,10,,0.9,,,,,,,,,,,,,,,,,,,2022,4,22,8,24,49,31,
2022-04-22 08:24:54.000,0,41.211185,1.727846,-4.6,0.17,,10,,0.9,,,,,,,,,,,,,,,,,,,2022,4,22,8,24,54,31,
2022-04-22 08:24:59.000,0,41.211189,1.727846,-5,0.14,,10,,0.91,,,,,,,,,,,,,,,,,,,2022,4,22,8,24,59,31,
2022-04-22 08:25:04.000,0,41.211189,1.727853,-5.6,0.06,,10,,0.91,,,,,,,,,,,,,,,,,,,2022,4,22,8,25,4,31,
2022-04-22 08:25:09.000,0,41.211189,1.727864,-5.5,0.05,,10,,0.91,,,,,,,,,,,,,,,,,,,2022,4,22,8,25,9,31,
2022-04-22 08:25:15.000,0,41.211208,1.727868,-4.9,1.03,,10,,0.91,,,,,,,,,,,,,,,,,,,2022,4,22,8,25,15,31,
2022-04-22 08:25:20.000,0,41.211193,1.727878,-3.7,0.15,,10,,0.91,,,,,,,,,,,,,,,,,,,2022,4,22,8,25,20,31,
2022-04-22 08:25:25.000,0,41.211197,1.727885,-3.6,0.36,,10,,0.91,,,,,,,,,,,,,,,,,,,2022,4,22,8,25,25,31,
2022-04-22 08:25:30.000,0,41.211197,1.727891,-4.6,0.54,,10,,0.91,,,,,,,,,,,,,,,,,,,2022,4,22,8,25,30,31,
2022-04-22 08:25:35.000,0,41.211193,1.727898,-5.1,0.1,,10,,0.91,,,,,,,,,,,,,,,,,,,2022,4,22,8,25,35,31,
2022-04-22 08:25:40.000,0,41.211189,1.727898,-4.8,0.07,,10,,0.91,,,,,,,,,,,,,,,,,,,2022,4,22,8,25,40,31,
2022-04-22 08:25:45.000,0,41.211185,1.727895,-4.6,0.34,,10,,0.91,,,,,,,,,,,,,,,,,,,2022,4,22,8,25,45,31,
2022-04-22 08:25:50.000,0,41.211189,1.727898,-5,0.1,,10,,0.91,,,,,,,,,,,,,,,,,,,2022,4,22,8,25,50,31,
2022-04-22 08:25:55.000,0,41.211193,1.727905,-4.2,0.13,,10,,0.91,,,,,,,,,,,,,,,,,,,2022,4,22,8,25,55,31,
2022-04-22 08:26:00.000,0,41.211189,1.727897,-2.6,0.05,,10,,0.91,,,,,,,,,,,,,,,,,,,2022,4,22,8,26,0,31,
2022-04-22 08:26:05.000,0,41.211182,1.727892,-3.1,0.33,,10,,0.91,,,,,,,,,,,,,,,,,,,2022,4,22,8,26,5,31,
2022-04-22 08:26:10.000,0,41.211185,1.727904,-3.5,0.33,,10,,0.91,,,,,,,,,,,,,,,,,,,2022,4,22,8,26,10,31,
2022-04-22 08:26:15.000,0,41.211185,1.727902,-3.1,0.01,,10,,0.91,,,,,,,,,,,,,,,,,,,2022,4,22,8,26,15,31,
2022-04-22 08:26:20.000,0,41.211189,1.727904,-2.7,0.08,,10,,0.91,,,,,,,,,,,,,,,,,,,2022,4,22,8,26,20,31,
2022-04-22 08:26:25.000,0,41.211189,1.727911,-3.2,0.05,,10,,0.91,,,,,,,,,,,,,,,,,,,2022,4,22,8,26,25,31,
2022-04-22 08:26:30.000,0,41.211189,1.727905,-2.8,0.01,,10,,0.91,,,,,,,,,,,,,,,,,,,2022,4,22,8,26,30,31,
2022-04-22 08:26:35.000,0,41.211193,1.727905,-2.9,0.17,,9,,1.15,,,,,,,,,,,,,,,,,,,2022,4,22,8,26,35,31,
2022-04-22 08:26:40.000,0,41.211193,1.727906,-2.7,0.03,,10,,1.12,,,,,,,,,,,,,,,,,,,2022,4,22,8,26,40,31,
2022-04-22 08:26:45.000,0,41.211193,1.72791,-2.3,0.25,,11,,0.87,,,,,,,,,,,,,,,,,,,2022,4,22,8,26,45,31,
2022-04-22 08:26:50.000,0,41.211189,1.727912,-2.7,0.08,,11,,0.87,,,,,,,,,,,,,,,,,,,2022,4,22,8,26,50,31,
2022-04-22 08:26:55.000,0,41.211189,1.72791,-1.9,0.1,,10,,1.12,,,,,,,,,,,,,,,,,,,2022,4,22,8,26,55,31,
2022-04-22 08:26:59.000,0,41.211182,1.727907,-0.9,0.49,,10,,1.12,,,,,,,,,,,,,,,,,,,2022,4,22,8,26,59,31,
2022-04-22 08:27:06.000,0,41.211182,1.727904,-0.6,0.08,,11,,0.87,,,,,,,,,,,,,,,,,,,2022,4,22,8,27,6,31,
2022-04-22 08:27:11.000,0,41.211185,1.727903,-1.6,0.1,,11,,0.87,,,,,,,,,,,,,,,,,,,2022,4,22,8,27,11,31,
2022-04-22 08:27:16.000,0,41.211189,1.727901,-1.5,0.19,,11,,0.87,,,,,,,,,,,,,,,,,,,2022,4,22,8,27,16,31,
2022-04-22 08:27:21.000,0,41.211185,1.727899,-1.1,0.12,,11,,0.87,,,,,,,,,,,,,,,,,,,2022,4,22,8,27,21,31,
2022-04-22 08:27:26.000,0,41.211182,1.727891,-1.3,0.18,,11,,0.87,,,,,,,,,,,,,,,,,,,2022,4,22,8,27,26,31,
2022-04-22 08:27:31.000,0,41.211182,1.72789,-2.4,0.07,,11,,0.87,,,,,,,,,,,,,,,,,,,2022,4,22,8,27,31,31,
2022-04-22 08:27:36.000,0,41.211178,1.727888,-3.1,0.28,,11,,0.87,,,,,,,,,,,,,,,,,,,2022,4,22,8,27,36,31,
2022-04-22 08:27:41.000,0,41.211174,1.727885,-3.1,0.03,,11,,0.87,,,,,,,,,,,,,,,,,,,2022,4,22,8,27,41,31,
2022-04-22 08:27:46.000,0,41.211178,1.727881,-2.6,0.06,,11,,0.87,,,,,,,,,,,,,,,,,,,2022,4,22,8,27,46,31,
2022-04-22 08:27:51.000,0,41.211174,1.727881,-2,0.06,,11,,0.87,,,,,,,,,,,,,,,,,,,2022,4,22,8,27,51,31,
2022-04-22 08:27:56.000,0,41.211174,1.727885,-1.3,0.04,,11,,0.87,,,,,,,,,,,,,,,,,,,2022,4,22,8,27,56,31,
2022-04-22 08:28:01.000,0,41.211178,1.727886,-0.9,0.22,,11,,0.87,,,,,,,,,,,,,,,,,,,2022,4,22,8,28,1,31,
2022-04-22 08:28:06.000,0,41.211182,1.727888,-0.6,0.36,,11,,0.87,,,,,,,,,,,,,,,,,,,2022,4,22,8,28,6,31,
2022-04-22 08:28:11.000,0,41.211189,1.727896,-1,0.06,,11,,0.87,,,,,,,,,,,,,,,,,,,2022,4,22,8,28,11,31,
2022-04-22 08:28:16.000,0,41.211197,1.727896,-1.8,0.23,,11,,0.87,,,,,,,,,,,,,,,,,,,2022,4,22,8,28,16,31,
2022-04-22 08:28:21.000,0,41.211197,1.7279,-1.8,0.13,,10,,1.12,,,,,,,,,,,,,,,,,,,2022,4,22,8,28,21,31,
2022-04-22 08:28:26.000,0,41.211201,1.7279,-2.3,0.28,,11,,0.87,,,,,,,,,,,,,,,,,,,2022,4,22,8,28,26,31,
2022-04-22 08:28:31.000,0,41.211208,1.7279,-3.2,0.16,,11,,0.87,,,,,,,,,,,,,,,,,,,2022,4,22,8,28,31,31,
2022-04-22 08:28:36.000,0,41.211208,1.727909,-4,0.63,,11,,0.87,,,,,,,,,,,,,,,,,,,2022,4,22,8,28,36,31,
2022-04-22 08:28:41.000,0,41.211224,1.727904,-3.4,0.33,,11,,0.87,,,,,,,,,,,,,,,,,,,2022,4,22,8,28,41,31,
2022-04-22 08:28:46.000,0,41.21122,1.727895,-3.2,0.24,,11,,0.87,,,,,,,,,,,,,,,,,,,2022,4,22,8,28,46,31,
2022-04-22 08:28:51.000,0,41.211208,1.727862,-1.4,1.17,,11,,0.87,,,,,,,,,,,,,,,,,,,2022,4,22,8,28,51,31,
2022-04-22 08:28:56.000,0,41.211163,1.727807,1,1.35,,11,,0.87,,,,,,,,,,,,,,,,,,,2022,4,22,8,28,56,31,
2022-04-22 08:29:01.000,0,41.211136,1.727754,1,0.69,,10,,0.91,,,,,,,,,,,,,,,,,,,2022,4,22,8,29,1,31,
2022-04-22 08:29:07.000,0,41.210972,1.727516,-0.5,10.76,,11,,0.87,,,,,,,,,,,,,,,,,,,2022,4,22,8,29,7,31,
2022-04-22 08:29:11.000,0,41.210957,1.727489,2.7,0.36,,10,,0.91,,,,,,,,,,,,,,,,,,,2022,4,22,8,29,11,31,
2022-04-22 08:29:16.000,0,41.210968,1.727526,1.9,0.57,,11,,0.91,,,,,,,,,,,,,,,,,,,2022,4,22,8,29,16,31,
2022-04-22 08:29:21.000,0,41.210983,1.727566,1.3,0.36,,11,,0.91,,,,,,,,,,,,,,,,,,,2022,4,22,8,29,21,31,
2022-04-22 08:29:26.000,0,41.210987,1.727579,0.3,0.87,,11,,0.91,,,,,,,,,,,,,,,,,,,2022,4,22,8,29,26,31,
2022-04-22 08:29:31.000,0,41.210995,1.7276,0.7,0.5,,11,,0.88,,,,,,,,,,,,,,,,,,,2022,4,22,8,29,31,31,
2022-04-22 08:29:37.000,0,41.21101,1.727625,-0.1,0.2,,11,,0.88,,,,,,,,,,,,,,,,,,,2022,4,22,8,29,37,28,
2022-04-22 08:29:42.000,0,41.210999,1.727635,-0.7,0.81,,11,,0.88,,,,,,,,,,,,,,,,,,,2022,4,22,8,29,42,28,
2022-04-22 08:29:47.000,0,41.210983,1.727632,-0.8,0.69,,11,,0.88,,,,,,,,,,,,,,,,,,,2022,4,22,8,29,47,28,
2022-04-22 08:29:52.000,0,41.210979,1.727641,-0.7,0.36,,11,,0.88,,,,,,,,,,,,,,,,,,,2022,4,22,8,29,52,28,
2022-04-22 08:29:57.000,0,41.210983,1.727627,-0.9,0.6,,11,,0.88,,,,,,,,,,,,,,,,,,,2022,4,22,8,29,57,28,
2022-04-22 08:30:02.000,0,41.210972,1.727642,-1.3,0.23,,10,,0.91,,,,,,,,,,,,,,,,,,,2022,4,22,8,30,2,22,
2022-04-22 08:30:07.000,0,41.210983,1.727662,-1.5,0.47,,11,,0.88,,,,,,,,,,,,,,,,,,,2022,4,22,8,30,7,22,
2022-04-22 08:30:12.000,0,41.210991,1.727669,-1.7,0.42,,11,,0.88,,,,,,,,,,,,,,,,,,,2022,4,22,8,30,12,22,
2022-04-22 08:30:17.000,0,41.210999,1.727677,-1.9,0.36,,11,,0.88,,,,,,,,,,,,,,,,,,,2022,4,22,8,30,17,22,
2022-04-22 08:30:22.000,0,41.211014,1.727689,-1.9,0.09,,11,,0.88,,,,,,,,,,,,,,,,,,,2022,4,22,8,30,22,22,
2022-04-22 08:30:27.000,0,41.211018,1.727697,-2.4,0.08,,11,,0.88,,,,,,,,,,,,,,,,,,,2022,4,22,8,30,27,26,
2022-04-22 08:30:32.000,0,41.21101,1.727695,-2.9,0.09,,11,,0.88,,,,,,,,,,,,,,,,,,,2022,4,22,8,30,32,26,
2022-04-22 08:30:37.000,0,41.211025,1.727693,-3.3,0.75,,11,,0.88,,,,,,,,,,,,,,,,,,,2022,4,22,8,30,37,26,
2022-04-22 08:30:42.000,0,41.211037,1.727695,-3.1,0.61,,11,,0.88,,,,,,,,,,,,,,,,,,,2022,4,22,8,30,42,26,
2022-04-22 08:30:47.000,0,41.211052,1.727705,-3,0.33,,11,,0.88,,,,,,,,,,,,,,,,,,,2022,4,22,8,30,47,26,
2022-04-22 08:30:52.000,0,41.211029,1.72768,-3.3,0.82,,11,,0.88,,,,,,,,,,,,,,,,,,,2022,4,22,8,30,52,26,
2022-04-22 08:30:57.000,0,41.211033,1.727687,-3.9,0.01,,11,,0.88,,,,,,,,,,,,,,,,,,,2022,4,22,8,30,57,26,
2022-04-22 08:31:02.000,0,41.211037,1.727705,-3.7,0.03,,11,,0.88,,,,,,,,,,,,,,,,,,,2022,4,22,8,31,2,26,
2022-04-22 08:31:08.000,0,41.211037,1.727708,-2.5,0.02,,11,,0.88,,,,,,,,,,,,,,,,,,,2022,4,22,8,31,8,26,
2022-04-22 08:31:13.000,0,41.21104,1.727716,-1.6,0.36,,12,,0.87,,,,,,,,,,,,,,,,,,,2022,4,22,8,31,13,26,
2022-04-22 08:31:17.000,0,41.21104,1.727721,-1.7,0.09,,12,,0.87,,,,,,,,,,,,,,,,,,,2022,4,22,8,31,17,30,
2022-04-22 08:31:22.000,0,41.211037,1.727722,-1.5,0.04,,12,,0.87,,,,,,,,,,,,,,,,,,,2022,4,22,8,31,22,30,
2022-04-22 08:31:27.000,0,41.211056,1.727739,-1.9,1.17,,12,,0.87,,,,,,,,,,,,,,,,,,,2022,4,22,8,31,27,30,
2022-04-22 08:31:33.000,0,41.211075,1.727757,-1.6,0.81,,12,,0.87,,,,,,,,,,,,,,,,,,,2022,4,22,8,31,33,30,
2022-04-22 08:31:38.000,0,41.211082,1.727767,-0.9,0.05,,12,,0.87,,,,,,,,,,,,,,,,,,,2022,4,22,8,31,38,30,
2022-04-22 08:31:43.000,0,41.211082,1.727784,-0.5,0.1,,12,,0.87,,,,,,,,,,,,,,,,,,,2022,4,22,8,31,43,31,
2022-04-22 08:31:48.000,0,41.211082,1.727785,-1.1,0.14,,11,,0.9,,,,,,,,,,,,,,,,,,,2022,4,22,8,31,48,31,
2022-04-22 08:31:53.000,0,41.211082,1.727785,-2.3,0.02,,12,,0.87,,,,,,,,,,,,,,,,,,,2022,4,22,8,31,53,31,
2022-04-22 08:31:58.000,0,41.211086,1.727784,-2.2,0.14,,12,,0.87,,,,,,,,,,,,,,,,,,,2022,4,22,8,31,58,31,
2022-04-22 08:32:03.000,0,41.211086,1.727788,-1.9,0.01,,12,,0.87,,,,,,,,,,,,,,,,,,,2022,4,22,8,32,3,31,
2022-04-22 08:32:08.000,0,41.211086,1.727785,-1.4,0.28,,12,,0.87,,,,,,,,,,,,,,,,,,,2022,4,22,8,32,8,31,
2022-04-22 08:32:13.000,0,41.211082,1.727789,-1.3,0.01,,12,,0.87,,,,,,,,,,,,,,,,,,,2022,4,22,8,32,13,31,
2022-04-22 08:32:18.000,0,41.21109,1.727793,-2.6,0.08,,12,,0.87,,,,,,,,,,,,,,,,,,,2022,4,22,8,32,18,31,
2022-04-22 08:32:23.000,0,41.211094,1.727793,-3.9,0.04,,11,,0.96,,,,,,,,,,,,,,,,,,,2022,4,22,8,32,23,31,
2022-04-22 08:32:28.000,0,41.211098,1.727792,-4,0.14,,12,,0.87,,,,,,,,,,,,,,,,,,,2022,4,22,8,32,28,31,
2022-04-22 08:32:33.000,0,41.211098,1.727788,-2.7,0.02,,12,,0.87,,,,,,,,,,,,,,,,,,,2022,4,22,8,32,33,31,
2022-04-22 08:32:38.000,0,41.211098,1.727786,-2.4,0.08,,12,,0.87,,,,,,,,,,,,,,,,,,,2022,4,22,8,32,38,31,
2022-04-22 08:32:43.000,0,41.211102,1.727783,-2.2,0.03,,12,,0.87,,,,,,,,,,,,,,,,,,,2022,4,22,8,32,43,31,
2022-04-22 08:32:48.000,0,41.211105,1.727779,-2.7,0.07,,12,,0.87,,,,,,,,,,,,,,,,,,,2022,4,22,8,32,48,31,
2022-04-22 08:32:53.000,0,41.211109,1.72778,-2.8,0.02,,12,,0.87,,,,,,,,,,,,,,,,,,,2022,4,22,8,32,53,31,
2022-04-22 08:32:58.000,0,41.211109,1.727782,-3.5,0.08,,12,,0.87,,,,,,,,,,,,,,,,,,,2022,4,22,8,32,58,31,
2022-04-22 08:33:03.000,0,41.211121,1.727797,-3.9,0.51,,12,,0.87,,,,,,,,,,,,,,,,,,,2022,4,22,8,33,3,31,
2022-04-22 08:33:08.000,0,41.211143,1.727826,-3.9,1.01,,12,,0.91,,,,,,,,,,,,,,,,,,,2022,4,22,8,33,8,31,
2022-04-22 08:33:13.000,0,41.211151,1.727845,-4.3,0.51,,12,,0.87,,,,,,,,,,,,,,,,,,,2022,4,22,8,33,13,31,
2022-04-22 08:33:19.000,0,41.211143,1.727858,-4.3,0.22,,12,,0.87,,,,,,,,,,,,,,,,,,,2022,4,22,8,33,19,31,
2022-04-22 08:33:24.000,0,41.211151,1.72786,-4.8,0.61,,12,,0.87,,,,,,,,,,,,,,,,,,,2022,4,22,8,33,24,31,
2022-04-22 08:33:29.000,0,41.211147,1.72786,-4.5,0.12,,12,,0.87,,,,,,,,,,,,,,,,,,,2022,4,22,8,33,29,31,
2022-04-22 08:33:34.000,0,41.211147,1.727865,-4.7,0.06,,12,,0.75,,,,,,,,,,,,,,,,,,,2022,4,22,8,33,34,31,
2022-04-22 08:33:39.000,0,41.211147,1.727866,-3.1,0.17,,12,,0.75,,,,,,,,,,,,,,,,,,,2022,4,22,8,33,39,31,
2022-04-22 08:33:44.000,0,41.211151,1.727862,-2,0.28,,12,,0.81,,,,,,,,,,,,,,,,,,,2022,4,22,8,33,44,31,
2022-04-22 08:33:49.000,0,41.211151,1.727865,-1.6,0.06,,12,,0.81,,,,,,,,,,,,,,,,,,,2022,4,22,8,33,49,31,
2022-04-22 08:33:54.000,0,41.211147,1.727861,-1.8,0.33,,12,,0.75,,,,,,,,,,,,,,,,,,,2022,4,22,8,33,54,31,
2022-04-22 08:33:59.000,0,41.211143,1.727861,-1.8,0.03,,12,,0.75,,,,,,,,,,,,,,,,,,,2022,4,22,8,33,59,31,
2022-04-22 08:34:04.000,0,41.211143,1.72786,-1.8,0.08,,12,,0.75,,,,,,,,,,,,,,,,,,,2022,4,22,8,34,4,31,
2022-04-22 08:34:09.000,0,41.211143,1.727858,-1.4,0.13,,12,,0.75,,,,,,,,,,,,,,,,,,,2022,4,22,8,34,9,31,
2022-04-22 08:34:14.000,0,41.211155,1.727865,-1.1,0.88,,12,,0.79,,,,,,,,,,,,,,,,,,,2022,4,22,8,34,14,31,
2022-04-22 08:34:19.000,0,41.211147,1.727864,-1,0.16,,12,,0.79,,,,,,,,,,,,,,,,,,,2022,4,22,8,34,19,31,
2022-04-22 08:34:24.000,0,41.211151,1.727868,-1.2,0.17,,12,,0.86,,,,,,,,,,,,,,,,,,,2022,4,22,8,34,24,31,
2022-04-22 08:34:29.000,0,41.211151,1.727865,-1.3,0.24,,12,,0.81,,,,,,,,,,,,,,,,,,,2022,4,22,8,34,29,31,
2022-04-22 08:34:34.000,0,41.211155,1.727865,-1.5,0.11,,12,,0.81,,,,,,,,,,,,,,,,,,,2022,4,22,8,34,34,31,
2022-04-22 08:34:39.000,0,41.211155,1.727863,-1,0.02,,12,,0.81,,,,,,,,,,,,,,,,,,,2022,4,22,8,34,39,31,
2022-04-22 08:34:44.000,0,41.211155,1.727864,-0.6,0.06,,12,,0.81,,,,,,,,,,,,,,,,,,,2022,4,22,8,34,44,31,
2022-04-22 08:34:49.000,0,41.211155,1.727866,-0.9,0.13,,12,,0.81,,,,,,,,,,,,,,,,,,,2022,4,22,8,34,49,31,
2022-04-22 08:34:54.000,0,41.211155,1.727865,-1.2,0.08,,12,,0.75,,,,,,,,,,,,,,,,,,,2022,4,22,8,34,54,31,
2022-04-22 08:34:59.000,0,41.211147,1.727869,-2.1,0.34,,12,,0.75,,,,,,,,,,,,,,,,,,,2022,4,22,8,34,59,31,
2022-04-22 08:35:04.000,0,41.211151,1.72788,-1.2,0.09,,12,,0.75,,,,,,,,,,,,,,,,,,,2022,4,22,8,35,4,31,
2022-04-22 08:35:09.000,0,41.211143,1.727885,-1,0.19,,12,,0.75,,,,,,,,,,,,,,,,,,,2022,4,22,8,35,9,31,
2022-04-22 08:35:14.000,0,41.21114,1.727891,-1.3,0.06,,12,,0.8,,,,,,,,,,,,,,,,,,,2022,4,22,8,35,14,31,
2022-04-22 08:35:19.000,0,41.211136,1.727891,-1.4,0.25,,12,,0.8,,,,,,,,,,,,,,,,,,,2022,4,22,8,35,19,31,
2022-04-22 08:35:24.000,0,41.211132,1.727894,-1,0.05,,12,,0.8,,,,,,,,,,,,,,,,,,,2022,4,22,8,35,24,31,
2022-04-22 08:35:29.000,0,41.211128,1.727922,-1.5,1.27,,12,,0.75,,,,,,,,,,,,,,,,,,,2022,4,22,8,35,29,31,
2022-04-22 08:35:35.000,0,41.211102,1.727987,-1.3,1.39,,12,,0.75,,,,,,,,,,,,,,,,,,,2022,4,22,8,35,35,31,
2022-04-22 08:35:40.000,0,41.211082,1.728069,-1.1,1.05,,12,,0.75,,,,,,,,,,,,,,,,,,,2022,4,22,8,35,40,31,
2022-04-22 08:35:45.000,0,41.211067,1.728149,-0.6,1.2,,12,,0.75,,,,,,,,,,,,,,,,,,,2022,4,22,8,35,45,31,
2022-04-22 08:35:50.000,0,41.211063,1.728215,-0.8,1.1,,12,,0.75,,,,,,,,,,,,,,,,,,,2022,4,22,8,35,50,31,
2022-04-22 08:35:55.000,0,41.211075,1.728273,-1.3,0.97,,12,,0.86,,,,,,,,,,,,,,,,,,,2022,4,22,8,35,55,31,
2022-04-22 08:36:00.000,0,41.211094,1.728342,-1.3,1.22,,11,,0.83,,,,,,,,,,,,,,,,,,,2022,4,22,8,36,0,31,
2022-04-22 08:36:05.000,0,41.211121,1.728412,-0.5,1.33,,12,,0.8,,,,,,,,,,,,,,,,,,,2022,4,22,8,36,5,31,
2022-04-22 08:36:10.000,0,41.211143,1.728482,0.2,0.92,,12,,0.8,,,,,,,,,,,,,,,,,,,2022,4,22,8,36,10,31,
2022-04-22 08:36:15.000,0,41.211163,1.728538,-1,0.77,,12,,0.8,,,,,,,,,,,,,,,,,,,2022,4,22,8,36,15,31,
2022-04-22 08:36:20.000,0,41.211197,1.728596,-2.9,1.04,,12,,0.8,,,,,,,,,,,,,,,,,,,2022,4,22,8,36,20,31,
2022-04-22 08:36:25.000,0,41.211212,1.728661,-3,0.23,,12,,0.8,,,,,,,,,,,,,,,,,,,2022,4,22,8,36,25,31,
2022-04-22 08:36:30.000,0,41.21122,1.728703,-1.6,1.12,,12,,0.8,,,,,,,,,,,,,,,,,,,2022,4,22,8,36,30,31,
2022-04-22 08:36:34.000,0,41.211227,1.728735,-1.4,0.43,,12,,0.8,,,,,,,,,,,,,,,,,,,2022,4,22,8,36,34,31,
2022-04-22 08:36:40.000,0,41.211227,1.72875,0.6,0.1,,11,,0.84,,,,,,,,,,,,,,,,,,,2022,4,22,8,36,40,31,
2022-04-22 08:36:45.000,0,41.211231,1.728756,1.2,0.05,,11,,0.92,,,,,,,,,,,,,,,,,,,2022,4,22,8,36,45,31,
2022-04-22 08:36:50.000,0,41.211235,1.728757,1.3,0.06,,11,,1.02,,,,,,,,,,,,,,,,,,,2022,4,22,8,36,50,31,
2022-04-22 08:36:55.000,0,41.211235,1.728758,1.7,0.09,,12,,1.02,,,,,,,,,,,,,,,,,,,2022,4,22,8,36,55,31,
2022-04-22 08:37:00.000,0,41.211235,1.728754,2.3,0.14,,12,,0.8,,,,,,,,,,,,,,,,,,,2022,4,22,8,37,0,31,
2022-04-22 08:37:05.000,0,41.211243,1.728765,2.3,0.22,,12,,0.8,,,,,,,,,,,,,,,,,,,2022,4,22,8,37,5,31,
2022-04-22 08:37:10.000,0,41.211254,1.728758,1.2,0.47,,12,,0.8,,,,,,,,,,,,,,,,,,,2022,4,22,8,37,10,30,
2022-04-22 08:37:15.000,0,41.211254,1.728757,0.5,0.06,,12,,0.76,,,,,,,,,,,,,,,,,,,2022,4,22,8,37,15,30,
2022-04-22 08:37:20.000,0,41.211243,1.728768,-2.1,0.08,,12,,0.76,,,,,,,,,,,,,,,,,,,2022,4,22,8,37,20,30,
2022-04-22 08:37:25.000,0,41.211243,1.728774,-4.3,0.47,,12,,0.76,,,,,,,,,,,,,,,,,,,2022,4,22,8,37,25,30,
2022-04-22 08:37:30.000,0,41.211262,1.728783,-6.4,0.39,,12,,0.8,,,,,,,,,,,,,,,,,,,2022,4,22,8,37,30,30,
2022-04-22 08:37:35.000,0,41.211262,1.728789,-10.7,0.16,,12,,0.86,,,,,,,,,,,,,,,,,,,2022,4,22,8,37,35,27,
2022-04-22 08:37:40.000,0,41.211277,1.728788,-12.3,0.17,,11,,0.98,,,,,,,,,,,,,,,,,,,2022,4,22,8,37,40,27,
2022-04-22 08:37:45.000,0,41.211277,1.728779,-13.5,0.17,,12,,0.81,,,,,,,,,,,,,,,,,,,2022,4,22,8,37,45,27,
2022-04-22 08:37:50.000,0,41.211254,1.728773,-15.1,0.65,,11,,0.86,,,,,,,,,,,,,,,,,,,2022,4,22,8,37,50,27,
2022-04-22 08:37:55.000,0,41.211254,1.728765,-18,0.22,,12,,0.86,,,,,,,,,,,,,,,,,,,2022,4,22,8,37,55,27,
2022-04-22 08:38:00.000,0,41.211258,1.728749,-21.5,0.14,,10,,1.06,,,,,,,,,,,,,,,,,,,2022,4,22,8,38,0,27,
2022-04-22 08:38:05.000,0,41.211266,1.728756,-18,0.22,,12,,0.81,,,,,,,,,,,,,,,,,,,2022,4,22,8,38,5,27,
2022-04-22 08:38:10.000,0,41.211285,1.728795,-16.8,0.55,,11,,0.92,,,,,,,,,,,,,,,,,,,2022,4,22,8,38,10,27,
2022-04-22 08:38:15.000,0,41.211315,1.728797,-16.8,0.96,,12,,0.89,,,,,,,,,,,,,,,,,,,2022,4,22,8,38,15,27,
2022-04-22 08:38:21.000,0,41.21138,1.728792,-15.2,1.34,,11,,0.97,,,,,,,,,,,,,,,,,,,2022,4,22,8,38,21,27,
2022-04-22 08:38:25.000,0,41.21143,1.728784,-12.2,0.89,,12,,0.89,,,,,,,,,,,,,,,,,,,2022,4,22,8,38,25,31,
2022-04-22 08:38:30.000,0,41.211472,1.728755,-7.8,0.88,,12,,0.76,,,,,,,,,,,,,,,,,,,2022,4,22,8,38,30,31,
2022-04-22 08:38:36.000,0,41.211533,1.728741,-6.7,1.33,,12,,0.76,,,,,,,,,,,,,,,,,,,2022,4,22,8,38,36,31,
2022-04-22 08:38:41.000,0,41.211594,1.728721,-5.1,1.51,,12,,0.76,,,,,,,,,,,,,,,,,,,2022,4,22,8,38,41,31,
2022-04-22 08:38:46.000,0,41.211651,1.728702,-4.1,1.14,,12,,0.76,,,,,,,,,,,,,,,,,,,2022,4,22,8,38,46,31,
2022-04-22 08:38:51.000,0,41.211704,1.728688,-3.6,1.26,,11,,0.87,,,,,,,,,,,,,,,,,,,2022,4,22,8,38,51,31,
2022-04-22 08:38:56.000,0,41.211758,1.728668,-3.2,1.08,,12,,0.76,,,,,,,,,,,,,,,,,,,2022,4,22,8,38,56,31,
2022-04-22 08:39:01.000,0,41.211823,1.728641,-2.8,1.17,,12,,0.78,,,,,,,,,,,,,,,,,,,2022,4,22,8,39,1,31,
2022-04-22 08:39:06.000,0,41.21188,1.728626,-3,1.13,,12,,0.76,,,,,,,,,,,,,,,,,,,2022,4,22,8,39,6,31,
2022-04-22 08:39:11.000,0,41.211937,1.728613,-4.5,1.24,,12,,0.8,,,,,,,,,,,,,,,,,,,2022,4,22,8,39,11,31,
2022-04-22 08:39:16.000,0,41.211987,1.7286,-5.6,1.12,,12,,0.8,,,,,,,,,,,,,,,,,,,2022,4,22,8,39,16,31,
2022-04-22 08:39:21.000,0,41.212044,1.728582,-5.9,1.07,,12,,0.76,,,,,,,,,,,,,,,,,,,2022,4,22,8,39,21,31,
2022-04-22 08:39:26.000,0,41.212101,1.728554,-4.7,1.34,,12,,0.76,,,,,,,,,,,,,,,,,,,2022,4,22,8,39,26,31,
2022-04-22 08:39:30.000,0,41.212147,1.728534,-3.8,1.13,,12,,0.8,,,,,,,,,,,,,,,,,,,2022,4,22,8,39,30,31,
2022-04-22 08:39:36.000,0,41.212212,1.728515,-3.4,0.92,,12,,0.76,,,,,,,,,,,,,,,,,,,2022,4,22,8,39,36,31,
2022-04-22 08:39:41.000,0,41.212273,1.728495,-3.8,1.08,,12,,0.8,,,,,,,,,,,,,,,,,,,2022,4,22,8,39,41,31,
2022-04-22 08:39:46.000,0,41.212326,1.728479,-5.2,1.01,,12,,0.76,,,,,,,,,,,,,,,,,,,2022,4,22,8,39,46,31,
2022-04-22 08:39:51.000,0,41.212383,1.728455,-4.8,1.2,,12,,0.8,,,,,,,,,,,,,,,,,,,2022,4,22,8,39,51,31,
2022-04-22 08:39:56.000,0,41.212444,1.72843,-4.7,1.6,,12,,0.76,,,,,,,,,,,,,,,,,,,2022,4,22,8,39,56,31,
2022-04-22 08:40:01.000,0,41.212505,1.728405,-4.7,1.13,,12,,0.76,,,,,,,,,,,,,,,,,,,2022,4,22,8,40,1,31,
2022-04-22 08:40:06.000,0,41.212563,1.728376,-3.2,1.35,,12,,0.89,,,,,,,,,,,,,,,,,,,2022,4,22,8,40,6,31,
2022-04-22 08:40:11.000,0,41.21262,1.728352,-3.4,1.21,,12,,0.8,,,,,,,,,,,,,,,,,,,2022,4,22,8,40,11,31,
2022-04-22 08:40:16.000,0,41.212677,1.728334,-4.8,1.15,,12,,0.76,,,,,,,,,,,,,,,,,,,2022,4,22,8,40,16,31,
2022-04-22 08:40:21.000,0,41.21273,1.728305,-6.4,1.31,,12,,0.76,,,,,,,,,,,,,,,,,,,2022,4,22,8,40,21,31,
2022-04-22 08:40:26.000,0,41.212791,1.72829,-5.2,1.18,,12,,0.76,,,,,,,,,,,,,,,,,,,2022,4,22,8,40,26,31,
2022-04-22 08:40:31.000,0,41.212856,1.728269,-5,1.53,,12,,0.86,,,,,,,,,,,,,,,,,,,2022,4,22,8,40,31,31,
2022-04-22 08:40:36.000,0,41.212917,1.728253,-4.2,1.09,,12,,0.81,,,,,,,,,,,,,,,,,,,2022,4,22,8,40,36,31,
2022-04-22 08:40:41.000,0,41.212967,1.728238,-3,1.42,,12,,0.81,,,,,,,,,,,,,,,,,,,2022,4,22,8,40,41,31,
2022-04-22 08:40:47.000,0,41.213028,1.728218,-2.6,1.33,,12,,0.82,,,,,,,,,,,,,,,,,,,2022,4,22,8,40,47,31,
2022-04-22 08:40:51.000,0,41.213074,1.728199,-1,1.05,,12,,0.82,,,,,,,,,,,,,,,,,,,2022,4,22,8,40,51,31,
2022-04-22 08:40:56.000,0,41.213127,1.728178,-0.6,1,,12,,0.84,,,,,,,,,,,,,,,,,,,2022,4,22,8,40,56,26,
2022-04-22 08:41:02.000,0,41.213161,1.728157,-2.2,0.82,,12,,0.76,,,,,,,,,,,,,,,,,,,2022,4,22,8,41,2,26,
2022-04-22 08:41:06.000,0,41.213215,1.728139,-2.2,1.27,,12,,0.76,,,,,,,,,,,,,,,,,,,2022,4,22,8,41,6,26,
2022-04-22 08:41:12.000,0,41.21328,1.728112,-2.9,1.35,,12,,0.89,,,,,,,,,,,,,,,,,,,2022,4,22,8,41,12,26,
2022-04-22 08:41:17.000,0,41.213348,1.728099,-3.1,1.33,,11,,0.93,,,,,,,,,,,,,,,,,,,2022,4,22,8,41,17,26,
2022-04-22 08:41:22.000,0,41.213417,1.72808,-3.6,1.24,,12,,0.93,,,,,,,,,,,,,,,,,,,2022,4,22,8,41,22,29,
2022-04-22 08:41:27.000,0,41.213474,1.728063,-3,1.02,,12,,0.93,,,,,,,,,,,,,,,,,,,2022,4,22,8,41,27,29,
2022-04-22 08:41:32.000,0,41.213531,1.728048,-3,1.25,,11,,0.84,,,,,,,,,,,,,,,,,,,2022,4,22,8,41,32,29,
2022-04-22 08:41:37.000,0,41.213593,1.728026,-4.7,1.59,,12,,0.8,,,,,,,,,,,,,,,,,,,2022,4,22,8,41,37,29,
2022-04-22 08:41:42.000,0,41.213634,1.728019,-3.6,0.54,,12,,0.8,,,,,,,,,,,,,,,,,,,2022,4,22,8,41,42,29,
2022-04-22 08:41:47.000,0,41.213638,1.728069,-4.6,1.42,,11,,0.93,,,,,,,,,,,,,,,,,,,2022,4,22,8,41,47,29,